SCP
0 0 0 0 0 0 0 0 0 0 0 0 0 0 0 0 0 0 0 0 0 0 0 0 0 0 0 0 0 0 0 0 0 0 0 0 0 0
0 0 0 0 0 0 0 0 0 0 0 0 0 0 0 0 0 0 0 0 0 0 0 0 0 0 0 0 0 0 0 0 0 0 0 0 0 0
0 0 0 0 0 0 0 0 0 0 0 0 0 0 0 0 0 0 0 0 0 0 0 0 0 0 0 0 0 0 0 0 0 0 0 0 0 0
0 0 0 0 0 0 0 0 0 0 0 0 0 0 0 0 0 0 0 0 0 0 0 0 0 0 0 0 0 0 0 0 0 0 0 0 0 0
0 0 0 0 0 0 0 0 0 0 0 0 0 0 0 0 0 0 0 0 0 0 0 0 0 0 0 0 0 0 0 0 0 0 0 0 0 0
0 0 0 0 0 0 0 0 0 0 0 0 0 0 0 0 0 0 0 0 0 0 0 0 0 0 0 0 0 0 0 0 0 0 0 0 0 0
0 0 0 0 0 0 0 0 0 0 0 0 0 0 0 0 0 0 0 0 0 0 0 0 0 0 0 0 0 0 0 0 0 0 0 0 0 0
0 0 0 0 0 0 0 0 0 0 0 0 0 0 0 0 0 0 0 0 0 0 0 0 0 0 0 0 0 0 0 0 0 0 0 0 0 0
0 0 0 0 0 0 0 0 0 0 0 0 0 0 0 0 0 0 0 0 0 0 0 0 0 0 0 0 0 0 0 0 0 0 0 0 0 0
0 0 0 0 0 0 0 0 0 0 0 0 0 0 0 0 0 0 0 0 0 0 0 0 0 0 0 0 0 0 0 0 0 0 0 0 0 0
0 0 0 0 0 0 0 0 0 0 0 0 0 0 0 0 0 0 0 0 0 0 0 0 0 0 0 0 0 0 0 0 0 0 0 0 0 0
0 0 0 0 0 0 0 0 0 0 0 0 0 0 0 0 0 0 0 0 0 0 0 0 0 0 0 0 0 0 0 0 0 0 0 0 0 0
0 0 0 0 0 0 0 0 0 0 0 0 0 0 0 0 0 0 0 0 0 0 0 0 0 0 0 0 0 0 0 0 0 0 0 0 0 0
0 0 0 0 0 0 0 0 0 0 0 0 0 0 0 0 0 0 0 0 0 0 0 0 0 0 0 0 0 0 0 0 0 0 0 0 0 0
0 0 0 0 0 0 0 0 0 0 0 0 0 0 0 0 0 0 0 0 0 0 0 0 0 0 0 0 0 0 0 0 0 0 0 0 0 0
0 0 0 0 0 0 0 0 0 0 0 0 0 0 0 0 0 0 0 0 0 0 0 0 0 0 0 0 0 0 0 0 0 0 0 0 0 0
0 0 0 0 0 0 0 0 0 0 0 0 0 0 0 0 0 0 0 0 0 0 0 0 0 0 0 0 0 0 0 0 0 0 0 0 0 0
0 0 0 0 0 0 0 0 0 0 0 0 0 0 0 0 0 0 0 0 0 0 0 0 0 0 0 0 0 0 0 0 0 0 0 0 0 0
0 0 0 0 0 0 0 0 0 0 0 0 0 0 0 0 0 0 0 0 0 0 0 0 0 0 0 0 0 0 0 0 0 0 0 0 0 0
0 0 0 0 0 0 0 0 0 0 0 0 0 0 0 0 0 0 0 0 0 0 0 0 0 0 0 0 0 0 0 0 0 0 0 0 0 0
0 0 0 0 0 0 0 0 0 0 0 0 0 0 0 0 0 0 0 0 0 0 0 0 0 0 0 0 0 0 0 0 0 0 0 0 0 0
0 0 0 0 0 -0 -0 -0 0 -0 0 0 0 0 0 0 0 0 0 0 0 0 0 0 0 0 0 0 0 0 0 0 0 0 0 0 0 0
0 0 -0 -0 -0 -0 -0 0 -0 -0 -0 -0 0 0 0 0 0 0 0 0 0 0 0 0 0 0 0 0 0 0 0 0 0 0 0 0 0 0
Wind_Speed
6 6 5 5 5 5 5 5 6 5 6 4 3 4 4 4 7 7 6 11 12 11 10 9 8 8 8 7 6 6 5 6 6 5 3 2 1 0
3 5 5 5 5 6 6 5 5 5 4 4 3 3 4 5 8 7 6 11 12 11 11 10 9 8 7 7 7 7 6 6 6 5 4 3 2 2
2 4 5 5 5 5 5 6 6 5 4 3 2 3 4 6 6 5 5 5 6 10 10 10 9 8 8 8 8 8 7 6 6 5 4 3 3 4
2 2 3 4 5 5 5 6 6 5 4 5 3 3 4 6 7 7 6 5 5 10 12 11 10 9 9 9 8 8 8 7 6 5 5 5 5 5
2 1 2 3 4 4 5 6 5 5 4 5 4 2 3 5 7 6 7 5 6 8 10 10 11 11 10 10 9 9 8 8 7 6 6 7 7 7
2 1 1 2 4 5 5 6 6 6 5 6 5 4 4 5 6 6 6 4 5 6 7 8 11 12 11 11 10 9 9 8 8 8 8 8 8 8
3 2 1 1 1 3 4 5 6 5 5 5 6 5 5 6 6 5 6 6 5 4 6 5 6 6 6 9 10 10 9 9 9 9 9 9 9 10
3 3 2 2 3 1 4 7 8 8 7 6 5 7 7 7 6 7 7 7 4 4 5 5 5 6 5 4 8 10 10 10 10 10 10 10 10 10
3 3 2 2 3 2 1 5 7 9 9 6 7 7 8 8 9 9 7 6 5 6 6 5 4 5 4 5 10 11 11 11 11 11 11 10 10 9
3 3 2 2 2 2 3 3 4 4 5 5 6 6 7 8 8 8 9 9 8 4 3 4 3 3 4 4 9 10 9 10 11 11 11 11 10 9
4 3 2 2 2 2 3 4 5 4 4 7 7 9 12 14 12 10 10 10 7 3 2 4 4 3 3 3 5 9 9 8 9 10 10 10 9 8
3 4 4 3 1 2 3 4 5 4 5 7 8 10 10 13 14 10 10 10 7 4 3 4 4 4 3 1 2 2 4 6 7 7 8 9 8 5
3 3 3 4 3 3 3 3 5 6 6 7 7 7 7 6 5 5 5 7 6 4 6 5 5 3 4 3 2 1 2 2 2 3 4 6 6 5
2 3 2 3 4 4 4 6 9 8 6 6 6 6 6 5 5 6 7 6 4 5 9 6 5 5 5 4 3 2 1 1 2 2 2 3 3 3
2 4 3 4 5 5 7 8 7 5 6 6 6 5 4 5 6 6 8 9 9 8 5 3 5 6 4 5 5 4 3 2 2 2 2 2 2 1
3 4 5 7 6 6 6 5 4 4 5 5 5 4 4 5 5 5 5 6 6 4 6 5 5 6 4 4 4 4 4 4 4 3 2 2 2 2
2 2 2 2 3 4 4 4 4 4 5 4 5 5 5 5 4 4 4 3 4 4 3 3 5 5 5 4 4 4 4 3 3 4 3 2 3 4
2 2 2 2 3 3 3 3 3 4 4 5 5 5 6 6 5 3 3 4 5 4 4 3 3 3 3 3 2 5 4 3 3 4 3 3 4 4
2 1 1 1 2 2 2 2 2 3 3 4 5 5 5 5 5 4 4 4 4 4 3 3 2 3 3 2 1 2 5 4 4 3 3 4 4 4
1 0 1 1 1 2 2 2 3 3 3 4 4 5 5 5 5 5 4 5 4 4 3 2 2 3 4 4 3 2 3 4 5 4 3 2 3 4
1 1 1 1 1 1 2 2 3 3 4 4 4 4 4 4 4 4 4 6 4 4 4 4 2 4 3 3 2 1 2 3 5 4 4 3 2 2
3 2 2 2 2 2 2 3 3 3 4 4 4 4 4 4 5 6 6 5 4 4 4 3 3 3 2 3 3 2 1 1 3 5 7 7 5 4
4 4 3 3 3 3 3 4 4 4 4 4 4 4 5 4 4 5 5 5 4 4 4 4 3 2 2 3 3 2 3 2 1 2 4 9 13 12
Wind_Direction
214 209 206 198 193 195 182 174 172 185 204 202 195 187 180 174 178 180 177 182 178 174 169 167 168 171 175 175 169 161 155 149 143 146 154 155 162 70
210 205 205 197 197 197 195 193 188 179 190 187 191 173 173 173 171 167 168 169 169 165 163 161 158 155 154 154 146 139 136 134 134 132 127 119 106 84
235 214 211 199 194 196 192 193 194 181 180 170 163 158 161 161 155 153 150 150 153 151 150 149 149 147 146 142 139 138 135 131 129 127 123 118 111 104
280 233 223 209 198 192 194 193 190 181 171 166 161 163 163 161 151 146 143 144 141 143 141 140 141 141 140 139 137 134 132 129 123 118 115 111 108 105
303 265 238 213 206 198 193 191 184 181 165 156 151 141 135 148 141 133 131 126 135 134 132 133 134 132 130 128 127 126 124 120 116 112 107 103 98 97
324 300 270 231 215 198 192 185 172 167 162 159 149 142 137 142 142 141 135 123 123 125 118 117 120 117 121 121 122 121 119 116 114 111 107 104 101 97
352 357 350 19 205 192 185 176 169 164 163 160 151 148 150 155 155 143 136 126 107 115 117 112 113 108 110 116 118 119 119 118 115 113 110 106 104 102
354 357 3 29 32 49 188 183 175 168 167 160 154 160 159 152 141 145 140 136 124 128 116 103 105 105 101 104 116 119 119 119 117 115 112 108 106 105
353 354 5 17 22 17 126 164 172 172 172 161 159 163 160 159 152 151 146 129 120 137 118 100 96 97 89 100 113 115 117 118 119 118 116 113 109 107
357 351 354 353 359 41 82 103 113 134 159 161 164 161 156 152 147 138 129 110 101 99 98 106 101 94 87 86 104 107 109 113 118 120 118 113 108 106
351 351 352 352 354 93 111 116 107 95 100 126 133 137 141 140 137 131 134 136 130 116 83 110 122 101 82 70 82 95 103 108 115 121 122 116 112 107
348 351 351 348 7 118 124 129 125 117 116 112 112 120 132 141 144 148 149 147 135 134 144 119 131 130 118 85 78 87 91 91 103 117 125 123 121 113
344 344 343 0 40 93 112 124 130 125 118 117 115 116 120 127 126 121 132 146 141 135 154 134 134 134 129 135 134 117 112 107 95 95 118 137 144 140
338 337 343 20 63 90 99 117 119 117 117 117 119 122 126 127 118 108 99 86 80 127 149 139 136 151 138 139 157 151 123 124 134 137 130 127 139 156
334 345 22 62 76 86 98 108 112 114 119 118 120 113 103 114 114 103 91 86 78 81 94 107 132 139 134 143 149 152 157 176 176 166 165 170 175 170
3 16 47 66 77 86 85 79 82 99 112 116 113 106 103 111 116 115 116 113 99 73 47 60 119 132 125 128 144 158 167 173 178 184 171 188 207 208
2 25 42 63 72 73 74 74 81 95 100 106 115 117 117 114 110 109 115 109 113 126 101 59 64 74 87 126 138 158 162 167 172 166 169 206 234 225
61 58 59 75 87 94 96 87 79 97 107 116 119 122 126 126 120 109 105 115 122 126 126 131 126 96 79 45 88 158 164 166 162 167 173 199 245 241
70 75 73 86 100 108 111 108 109 113 116 122 125 127 127 125 124 123 118 114 118 123 129 136 133 127 138 188 262 167 166 162 154 169 193 202 229 246
65 129 134 122 122 131 135 129 126 123 121 126 128 131 134 132 133 138 139 137 136 131 136 146 162 162 169 181 186 186 178 165 170 183 190 206 252 274
220 220 213 193 173 164 160 152 150 149 144 139 140 143 144 138 141 146 146 146 138 146 165 184 185 148 122 108 112 220 227 209 190 182 173 178 228 262
211 210 214 212 195 180 170 161 156 155 154 153 157 157 157 155 156 159 162 163 167 165 162 146 137 134 140 160 186 206 223 221 229 224 211 192 183 207
209 205 204 203 197 185 177 176 175 175 173 169 166 166 164 165 167 167 170 169 158 155 148 152 157 161 169 175 184 196 211 212 206 226 245 233 232 242